Tracking 20242 objects as of 24-Jan-2020
HD Live streaming from Space Station
objects crossing your sky now

ARIANE 44L R/B

Track ARIANE 44L R/B now!
10-day predictions


NORAD ID: 22032
Int'l Code: 1992-041C
Perigee: 153.1 km
Apogee: 12,127.6 km
Inclination: 7.0 °
Period: 232.1 minutes
Semi major axis: 12511 km
RCS: 44.0573 m2 (large)
Launch date: July 9, 1992
Source: France (FR)
Launch site: FRENCH GUIANA (FRGUI)

Note: This is a ROCKET BODY
aabbcc
Your satellite tracking list
Your tracking list is empty




NASA's NSSDC Master Catalog

Two Line Element Set (TLE):
1 22032U 92041C   20024.01431293  .00508934 -89565-6  80869-3 0  9999
2 22032   7.0222 298.8678 4785455 276.4445  33.2805  6.20362103364627
Source of the keplerian elements: AFSPC